Location: Home
(51.5204°N, 2.5456°W)
Time: 17:38:33
(UTC+01:00)

OTV 5 (USA 277) - Visible Passes

Search period start: 26 April 2019 00:00
Search period end: 06 May 2019 00:00
Orbit: 310 x 325 km, 54.5° (Epoch: 24 April)

Date Brightness Start Highest point End Pass type
(mag) Time Alt. Az. Time Alt. Az. Time Alt. Az.
26 Apr ? 21:05:21 10° SW 21:07:54 36° SSE 21:10:28 10° ENE visible
26 Apr ? 22:39:30 10° W 22:42:11 53° NNW 22:43:14 30° NE visible
27 Apr ? 21:19:51 10° WSW 21:22:35 73° SSE 21:25:18 10° ENE visible
27 Apr ? 22:54:25 10° W 22:57:02 42° N 22:57:47 32° NE visible
28 Apr ? 21:34:37 10° W 21:37:20 65° NNW 21:40:03 10° ENE visible
28 Apr ? 23:09:18 10° WNW 23:11:55 41° N 23:12:08 40° NNE visible
29 Apr ? 21:49:30 10° W 21:52:10 46° N 21:54:49 10° ENE visible
29 Apr ? 23:24:07 10° WNW 23:26:20 42° NNW 23:26:20 42° NNW visible
30 Apr ? 22:04:25 10° WNW 22:07:02 40° N 22:09:35 10° ENE visible
30 Apr ? 23:38:53 10° WNW 23:40:28 30° WNW 23:40:28 30° WNW visible
01 May ? 22:19:16 10° WNW 22:21:55 43° N 22:23:41 18° ENE visible
01 May ? 23:53:38 10° WNW 23:54:33 19° WNW 23:54:33 19° WNW visible
02 May ? 22:34:04 10° WNW 22:36:45 57° NNE 22:37:45 32° E visible
03 May ? 00:08:31 10° W 00:08:37 11° W 00:08:37 11° W visible
03 May ? 21:14:25 10° WNW 21:17:02 41° N 21:19:39 10° ENE visible
03 May ? 22:48:49 10° WNW 22:51:33 88° SSW 22:51:48 71° ESE visible
04 May ? 21:29:14 10° WNW 21:31:55 48° N 21:34:34 10° E visible
04 May ? 23:03:37 10° WNW 23:05:51 41° WSW 23:05:51 41° WSW visible
05 May ? 21:44:00 10° WNW 21:46:44 72° NNE 21:49:02 13° ESE visible
05 May ? 23:18:37 10° W 23:19:55 19° WSW 23:19:55 19° WSW visible
